Location: Coopersdale
(40.3556°N, 78.9372°W)
Time: 03:07:14
(UTC+00:00)

Tiros 1 despin weight - Pass Details

Date: 20 January 2021
Orbit: 593 x 642 km, 48.2° (Epoch: 02 March)

Event Time Altitude Azimuth Distance (km) Brightness Sun altitude
Rises 04:51:06 0° 281° (W) 2,824 - -68.3°
Reaches altitude 10° 04:55:14 10° 244° (WSW) 1,918 - -68.6°
Maximum altitude 04:56:14 11° 230° (SW) 1,871 - -68.7°
Drops below altitude 10° 04:57:15 10° 217° (SW) 1,917 - -68.8°
Sets 05:01:23 0° 179° (S) 2,819 - -69.0°
